PBO Station Position Time Series. Reference Frame : NAM14
Format Version,1.1.0
4-character ID,P732
Station name,Vaughn_Pt_OR2008
Begin Date, 2008-05-13
End Date, 2019-10-07
Release Date, 2019-10-08
Reference position, 43.3924994493 North Latitude, -123.8913704427 East Longitude, 582.10248 meters elevation,
Date, North (mm), East (mm), Vertical (mm), North Std. Deviation (mm), East Std. Deviation (mm),              Vertical Std. Deviation (mm), Quality,
2008-05-13,0.00, 0.00, 0.00, 2.16, 1.56, 7.21, repro,
2008-05-14,1.09, 0.50, -10.26, 2.16, 1.54, 7.12, repro,
2008-05-15,0.91, 1.99, -13.11, 2.15, 1.52, 7.05, repro,
2008-05-16,1.42, 0.30, -12.15, 2.16, 1.54, 7.13, repro,
2008-05-17,0.65, -0.13, -5.22, 2.15, 1.55, 7.13, repro,
2008-05-18,0.95, 0.74, -8.33, 2.18, 1.58, 7.21, repro,
2008-05-19,1.52, 0.40, -7.12, 2.12, 1.52, 7.00, repro,
2008-05-20,1.50, -0.65, -5.27, 2.14, 1.53, 7.06, repro,
2008-05-21,0.36, 0.71, -6.12, 2.13, 1.53, 7.07, repro,
2008-05-22,-0.12, -0.85, -4.03, 2.18, 1.59, 7.33, repro,
2008-05-23,-0.83, -0.33, -2.46, 2.14, 1.57, 7.20, repro,
2008-05-24,0.76, -1.04, -6.59, 2.12, 1.53, 7.04, repro,
2008-05-25,-0.32, 0.09, -4.21, 2.13, 1.52, 7.01, repro,
2008-05-26,0.67, 0.18, -5.39, 2.15, 1.56, 7.15, repro,
2008-05-27,0.86, 0.73, -9.52, 2.14, 1.53, 7.08, repro,
2008-05-28,0.33, -0.18, -7.28, 2.13, 1.54, 7.09, repro,
2008-05-29,1.34, -0.40, -7.02, 2.17, 1.57, 7.15, repro,
2008-05-30,1.10, 0.50, -8.83, 2.13, 1.53, 7.05, repro,
2008-05-31,1.03, 0.39, -6.42, 2.12, 1.51, 6.98, repro,
2008-06-01,1.52, -0.09, -8.43, 2.13, 1.52, 7.00, repro,
2008-06-02,1.88, 0.19, -9.01, 2.14, 1.54, 7.09, repro,
2008-06-03,0.66, -0.49, -10.63, 2.19, 1.60, 7.37, repro,
2008-06-04,1.07, 0.71, -5.23, 2.12, 1.53, 7.05, repro,
2008-06-05,1.67, 0.43, -8.65, 2.14, 1.53, 7.07, repro,
2008-06-06,1.01, -0.66, -7.76, 2.17, 1.54, 7.07, repro,
2008-06-07,0.43, -0.17, -7.66, 2.21, 1.61, 7.37, repro,
2008-06-08,0.54, 0.10, -10.50, 2.19, 1.58, 7.25, repro,
2008-06-09,-1.25, -1.09, -8.43, 2.19, 1.59, 7.24, repro,
2008-06-10,-1.13, -2.17, -9.55, 2.14, 1.53, 7.05, repro,
2008-06-11,-0.98, -1.39, -8.69, 2.13, 1.52, 7.01, repro,
2008-06-12,-1.23, -2.17, -6.41, 2.15, 1.55, 7.14, repro,
2008-06-13,-1.09, -1.40, -6.64, 2.18, 1.57, 7.21, repro,
2008-06-14,-1.16, -1.36, -2.95, 2.19, 1.59, 7.28, repro,
2008-06-15,0.95, -2.64, -8.48, 2.19, 1.58, 7.26, repro,
2008-06-16,-0.24, -3.50, -7.74, 2.14, 1.53, 7.06, repro,
2008-06-17,-1.10, -2.64, -6.45, 2.13, 1.52, 7.02, repro,
2008-06-18,-0.63, -1.76, -8.91, 2.13, 1.53, 7.08, repro,
2008-06-19,-0.17, -1.32, -4.76, 2.22, 1.64, 7.55, repro,
2008-06-20,-0.52, -2.51, -6.35, 2.12, 1.53, 6.99, repro,
2008-06-21,0.21, -1.91, -5.62, 2.19, 1.60, 7.33, repro,
2008-06-22,-0.91, -2.65, -7.93, 2.13, 1.52, 7.01, repro,
2008-06-23,-1.20, -2.67, -3.46, 2.13, 1.53, 7.05, repro,
2008-06-24,-0.75, -1.92, -3.05, 2.15, 1.53, 7.09, repro,
2008-06-25,-1.55, -2.12, -1.87, 2.14, 1.54, 7.07, repro,
2008-06-26,-0.33, -2.04, -4.79, 2.14, 1.57, 7.13, repro,
2008-06-27,0.24, -3.10, 0.27, 2.13, 1.52, 7.00, repro,
2008-06-28,0.58, -2.76, -4.78, 2.13, 1.52, 7.00, repro,
2008-06-29,-1.52, -2.94, -1.53, 2.19, 1.54, 7.17, repro,
2008-06-30,0.35, -3.80, -7.53, 2.18, 1.60, 7.29, repro,
2008-07-01,-0.61, -4.23, -0.62, 2.12, 1.53, 7.01, repro,
2008-07-02,-0.07, -2.62, -1.06, 2.13, 1.52, 7.01, repro,
2008-07-03,1.50, -2.96, -2.97, 2.14, 1.54, 7.07, repro,
2008-07-04,-0.32, -4.64, 1.00, 2.13, 1.52, 7.01, repro,
2008-07-05,-0.21, -1.64, 6.01, 2.13, 1.53, 7.05, repro,
2008-07-06,-0.70, -2.17, 1.83, 2.13, 1.53, 7.03, repro,
2008-07-07,-1.92, -2.75, -0.69, 2.13, 1.53, 7.00, repro,
2008-07-08,-0.52, -3.43, 1.86, 2.13, 1.53, 7.01, repro,
2008-07-09,-0.73, -1.73, 1.15, 2.13, 1.52, 7.00, repro,
2008-07-10,-1.00, -2.55, 1.81, 2.21, 1.58, 7.26, repro,
2008-07-11,-0.60, -3.22, 3.29, 2.21, 1.59, 7.24, repro,
2008-07-12,-0.46, -3.88, 0.12, 2.13, 1.52, 6.98, repro,
2008-07-13,1.25, -3.03, 2.45, 2.17, 1.59, 7.24, repro,
2008-07-14,-1.40, -2.91, 3.38, 2.14, 1.53, 7.04, repro,
2008-07-15,0.21, -3.46, -1.92, 2.14, 1.51, 6.98, repro,
2008-07-16,-0.88, -3.05, -2.10, 2.14, 1.52, 7.03, repro,
2008-07-17,-1.18, -3.03, 0.76, 2.13, 1.52, 6.97, repro,
2008-07-18,-0.76, -2.50, 6.36, 2.26, 1.59, 7.33, repro,
2008-07-19,-0.04, -2.72, -0.48, 2.19, 1.54, 7.16, repro,
2008-07-20,-0.87, -2.79, 2.66, 2.12, 1.53, 6.98, repro,
2008-07-21,-1.49, -3.26, 5.23, 2.14, 1.53, 7.04, repro,
2008-07-22,0.26, -2.39, 2.69, 2.14, 1.52, 6.98, repro,
2008-07-23,-1.05, -1.82, 1.78, 2.18, 1.54, 7.08, repro,
2008-07-24,-0.68, -2.62, 1.04, 2.14, 1.54, 7.04, repro,
2008-07-25,0.32, -3.16, 4.38, 2.13, 1.52, 6.99, repro,
2008-07-26,-0.75, -3.34, 6.33, 2.12, 1.52, 6.99, repro,
2008-07-27,-1.40, -2.87, 6.25, 2.13, 1.52, 7.01, repro,
2008-07-28,-0.40, -3.39, 5.92, 2.25, 1.63, 7.36, repro,
2008-07-29,-0.47, -2.55, 3.48, 2.41, 1.67, 7.81, repro,
2008-07-30,-0.45, -3.09, 12.28, 2.19, 1.53, 7.20, repro,
2008-07-31,-1.91, -3.44, 5.38, 2.13, 1.52, 7.01, repro,
2008-08-01,-1.39, -3.03, 5.69, 2.13, 1.52, 6.98, repro,
2008-08-02,-0.60, -2.08, 5.09, 2.16, 1.58, 7.19, repro,
2008-08-03,-0.06, -2.65, 3.64, 2.16, 1.56, 7.14, repro,
2008-08-04,0.49, -3.16, 1.45, 2.13, 1.52, 6.97, repro,
2008-08-05,-0.31, -3.28, 4.99, 2.12, 1.52, 6.99, repro,
2008-08-06,-0.45, -4.20, 2.10, 2.19, 1.54, 7.12, repro,
2008-08-07,-0.81, -5.92, 12.48, 2.23, 1.58, 7.28, repro,
2008-08-08,0.14, -3.14, 5.71, 2.23, 1.59, 7.28, repro,
2008-08-09,-2.16, -4.43, 6.39, 2.17, 1.53, 7.05, repro,
2008-08-10,-0.48, -2.93, -2.50, 2.17, 1.53, 7.06, repro,
2008-08-11,-1.84, -3.31, 0.92, 2.19, 1.55, 7.18, repro,
2008-08-12,-0.81, -3.89, 5.90, 2.21, 1.55, 7.25, repro,
2008-08-13,-1.51, -3.64, 3.96, 2.18, 1.55, 7.16, repro,
2008-08-14,-0.88, -3.79, 6.60, 2.17, 1.54, 7.08, repro,
2008-08-15,0.27, -3.70, 5.15, 2.18, 1.54, 7.10, repro,
2008-08-16,-0.34, -3.42, 6.34, 2.20, 1.55, 7.20, repro,
2008-08-17,-1.11, -3.09, 10.87, 2.22, 1.56, 7.33, repro,
2008-08-18,0.08, -3.95, 4.85, 2.20, 1.55, 7.25, repro,
2008-08-19,-1.24, -3.97, 12.20, 2.18, 1.54, 7.11, repro,
2008-08-20,-0.30, -4.46, 4.97, 2.18, 1.54, 7.13, repro,
2008-08-21,-0.84, -3.90, 5.89, 2.19, 1.53, 7.13, repro,
2008-08-22,-0.75, -4.30, 8.67, 2.22, 1.55, 7.24, repro,
2008-08-23,-0.53, -3.55, 6.54, 2.20, 1.54, 7.18, repro,
2008-08-24,-1.77, -3.34, 5.53, 2.20, 1.57, 7.25, repro,
2008-08-25,-1.12, -4.55, 8.68, 2.18, 1.56, 7.17, repro,
2008-08-26,-1.65, -3.34, 8.59, 2.18, 1.54, 7.11, repro,
2008-08-27,-1.53, -3.04, 10.61, 2.22, 1.57, 7.25, repro,
2008-08-28,-1.32, -3.03, 4.72, 2.38, 1.66, 7.63, repro,
2008-08-29,-2.82, -3.06, 4.83, 2.22, 1.57, 7.24, repro,
2008-08-30,-1.95, -3.04, 4.32, 2.22, 1.57, 7.26, repro,
2008-08-31,-1.80, -3.15, 0.83, 2.20, 1.57, 7.23, repro,
2008-09-01,-1.34, -4.02, -1.34, 2.22, 1.56, 7.25, repro,
2008-09-02,-2.43, -3.82, 2.57, 2.24, 1.57, 7.29, repro,
2008-09-03,-0.59, -2.18, 1.49, 2.23, 1.58, 7.29, repro,
2008-09-04,-1.28, -4.51, 6.39, 2.33, 1.67, 7.72, repro,
2008-09-05,-1.98, -2.84, 2.67, 2.25, 1.61, 7.35, repro,
2008-09-06,-1.16, -2.88, 0.11, 2.19, 1.57, 7.23, repro,
2008-09-07,-0.26, -2.45, 6.08, 2.22, 1.57, 7.28, repro,
2008-09-08,-1.17, -3.81, 5.98, 2.23, 1.57, 7.27, repro,
2008-09-09,-1.41, -3.01, 5.15, 2.29, 1.57, 7.35, repro,
2008-09-10,-0.14, -3.26, 3.26, 2.24, 1.59, 7.26, repro,
2008-09-11,-1.15, -4.52, 7.89, 2.23, 1.59, 7.25, repro,
2008-09-12,-1.75, -3.68, 8.35, 2.29, 1.64, 7.47, repro,
2008-09-13,0.09, -2.48, 8.62, 2.27, 1.59, 7.39, repro,
2008-09-14,0.16, -2.23, 4.47, 2.32, 1.63, 7.50, repro,
2008-09-15,-0.80, -2.93, 9.07, 2.20, 1.55, 7.16, repro,
2008-09-16,0.05, -3.38, 4.69, 2.19, 1.59, 7.23, repro,
2008-09-17,0.73, -3.72, -0.59, 2.26, 1.61, 7.39, repro,
2008-09-18,-0.34, -2.70, 3.83, 2.17, 1.53, 7.08, repro,
2008-09-19,-0.22, -3.95, 1.39, 2.18, 1.53, 7.06, repro,
2008-09-20,-0.05, -3.48, 2.95, 2.20, 1.54, 7.12, repro,
2008-09-21,-0.42, -3.39, 1.64, 2.23, 1.57, 7.18, repro,
2008-09-22,-1.08, -2.61, 2.47, 2.18, 1.54, 7.09, repro,
2008-09-23,0.11, -3.60, 5.70, 2.16, 1.52, 7.02, repro,
2008-09-24,0.82, -3.78, 3.30, 2.29, 1.63, 7.45, repro,
2008-09-25,-0.57, -3.10, 7.26, 2.24, 1.57, 7.20, repro,
2008-09-26,-0.20, -2.73, 1.46, 2.19, 1.54, 7.08, repro,
2008-09-27,-1.10, -2.21, 1.95, 2.23, 1.57, 7.21, repro,
2008-09-28,-0.01, -2.17, 1.10, 2.17, 1.53, 7.02, repro,
2008-09-29,-1.05, -2.36, 1.10, 2.23, 1.57, 7.17, repro,
2008-09-30,0.41, -3.52, 5.55, 2.20, 1.53, 7.06, repro,
2008-10-01,0.92, -3.44, 1.37, 2.20, 1.54, 7.08, repro,
2008-10-02,-0.39, -2.88, 7.36, 2.24, 1.57, 7.24, repro,
2008-10-03,-0.24, -2.60, 11.61, 2.24, 1.59, 7.28, repro,
2008-10-04,-2.42, -5.09, 7.50, 2.18, 1.53, 7.05, repro,
2008-10-05,-0.33, -2.93, 2.56, 2.24, 1.57, 7.22, repro,
2008-10-06,-0.91, -2.84, 8.39, 2.20, 1.54, 7.11, repro,
2008-10-07,0.06, -1.03, 0.73, 2.21, 1.53, 7.08, repro,
2008-10-08,-0.85, -1.68, -4.19, 2.23, 1.55, 7.20, repro,
2008-10-09,-2.00, -2.65, -8.41, 2.14, 1.51, 6.92, repro,
2008-10-10,-1.96, -2.55, -7.99, 2.14, 1.52, 6.97, repro,
2008-10-11,-0.37, -2.63, -2.72, 2.15, 1.52, 7.02, repro,
2008-10-12,-0.67, -2.81, -2.76, 2.14, 1.52, 6.99, repro,
2008-10-13,-0.58, -3.31, 1.32, 2.13, 1.52, 6.98, repro,
2008-10-14,-0.94, -2.32, 1.39, 2.14, 1.52, 7.00, repro,
2008-10-15,-0.25, -2.84, -1.70, 2.21, 1.54, 7.17, repro,
2008-10-16,-0.45, -3.19, 0.40, 2.21, 1.56, 7.22, repro,
2008-10-17,-0.62, -3.01, -3.26, 2.13, 1.52, 7.00, repro,
2008-10-18,-0.66, -3.37, -1.80, 2.14, 1.52, 7.03, repro,
2008-10-19,-1.03, -3.13, 3.58, 2.13, 1.52, 7.01, repro,
2008-10-20,-0.86, -2.83, 3.66, 2.14, 1.52, 7.01, repro,
2008-10-21,-0.67, -2.59, -0.88, 2.20, 1.57, 7.22, repro,
2008-10-22,-0.30, -1.47, -4.79, 2.13, 1.52, 6.98, repro,
2008-10-23,-1.21, -2.23, 5.50, 2.15, 1.53, 7.03, repro,
2008-10-24,0.20, -3.02, 0.21, 2.13, 1.51, 6.98, repro,
2008-10-25,-0.37, -4.20, 9.58, 2.14, 1.53, 7.03, repro,
2008-10-26,-0.33, -3.06, 0.28, 2.14, 1.52, 7.02, repro,
2008-10-27,-0.37, -2.79, -3.69, 2.14, 1.52, 7.03, repro,
2008-10-28,0.05, -3.21, -3.02, 2.24, 1.54, 7.13, repro,
2008-10-29,-0.59, -2.77, 0.00, 2.24, 1.57, 7.20, repro,
2008-10-30,-0.12, -3.42, 4.20, 2.17, 1.57, 7.19, repro,
2008-10-31,-0.22, -3.42, -0.46, 2.24, 1.66, 7.59, repro,
2008-11-01,-0.59, -2.98, 6.51, 2.20, 1.59, 7.31, repro,
2008-11-02,-1.61, -4.79, 7.31, 2.17, 1.56, 7.20, repro,
2008-11-03,0.13, -3.40, 5.34, 2.19, 1.56, 7.18, repro,
2008-11-04,-1.20, -4.31, 10.14, 2.17, 1.56, 7.17, repro,
2008-11-05,0.29, -2.42, 0.62, 2.16, 1.59, 7.23, repro,
2008-11-06,0.92, -1.95, -2.21, 2.18, 1.59, 7.27, repro,
2008-11-07,-0.41, -2.51, -3.14, 2.25, 1.69, 7.67, repro,
2008-11-08,-1.48, -3.14, 1.69, 2.19, 1.60, 7.26, repro,
2008-11-09,-3.25, -2.47, 1.04, 2.19, 1.69, 7.53, repro,
2008-11-10,-1.58, -3.08, 2.41, 2.15, 1.57, 7.14, repro,
2008-11-11,-0.97, -1.77, 3.38, 2.25, 1.75, 7.85, repro,
2008-11-12,1.89, -2.64, -3.81, 2.16, 1.54, 7.12, repro,
2008-11-13,-0.49, -1.56, -3.47, 2.20, 1.60, 7.28, repro,
2008-11-14,-0.66, -1.93, -7.39, 2.25, 1.69, 7.54, repro,
2008-11-15,-0.50, -0.32, -7.28, 2.18, 1.58, 7.25, repro,
2008-11-16,-0.22, -2.21, -4.54, 2.23, 1.69, 7.56, repro,
2008-11-17,-1.25, -1.31, -4.94, 2.24, 1.69, 7.58, repro,
2008-11-18,-0.35, -2.16, -5.17, 2.45, 1.91, 8.67, repro,
2008-11-19,-0.21, -1.61, -5.93, 2.33, 1.68, 7.72, repro,
2008-11-20,-1.43, -2.62, -6.99, 2.24, 1.64, 7.43, repro,
2008-11-21,-0.32, -1.27, -2.25, 2.27, 1.74, 7.87, repro,
2008-11-22,0.97, -1.09, -0.68, 2.38, 1.77, 8.01, repro,
2008-11-23,0.06, -1.62, -6.02, 2.28, 1.67, 7.56, repro,
2008-11-24,-0.13, -1.92, -2.96, 2.36, 1.79, 8.00, repro,
2008-11-25,-0.36, -2.04, -8.29, 2.24, 1.69, 7.56, repro,
2008-11-26,-0.97, -3.34, -0.20, 2.13, 1.54, 7.02, repro,
2008-11-27,-0.23, -3.17, -6.36, 2.16, 1.62, 7.32, repro,
2008-11-28,-0.20, -2.54, -3.08, 2.22, 1.67, 7.51, repro,
2008-11-29,-1.54, -1.74, -1.56, 2.31, 1.76, 7.91, repro,
2008-11-30,-0.54, -2.91, 0.59, 2.16, 1.56, 7.15, repro,
2008-12-01,0.46, -0.95, 4.38, 2.15, 1.54, 7.09, repro,
2008-12-02,0.48, -1.82, 1.16, 2.21, 1.61, 7.30, repro,
2008-12-03,-0.44, -1.59, -1.73, 2.22, 1.63, 7.33, repro,
2008-12-04,-1.14, -0.84, -2.65, 2.29, 1.78, 7.87, repro,
2008-12-05,0.75, -1.98, -4.46, 2.20, 1.63, 7.34, repro,
2008-12-06,0.88, -2.49, -2.08, 2.32, 1.83, 8.10, repro,
2008-12-07,0.17, -2.77, -2.54, 2.21, 1.71, 7.62, repro,
2008-12-08,-0.51, -2.87, -0.97, 2.16, 1.60, 7.27, repro,
2008-12-09,1.77, -2.83, -3.67, 2.21, 1.61, 7.27, repro,
2008-12-10,1.02, -1.24, -14.67, 2.16, 1.54, 7.12, repro,
2008-12-11,0.11, -2.34, -4.47, 2.28, 1.70, 7.61, repro,
2008-12-12,0.25, -2.32, -2.47, 2.31, 1.76, 7.93, repro,
2008-12-13,0.78, -3.23, -3.78, 2.16, 1.60, 7.28, repro,
2008-12-14,-1.76, -1.81, -6.44, 2.14, 1.51, 6.95, repro,
2008-12-15,1.72, -2.37, -0.77, 2.15, 1.56, 7.10, repro,
2008-12-16,0.53, -3.25, -0.78, 2.16, 1.56, 7.14, repro,
2008-12-17,-0.45, -1.96, -5.88, 2.19, 1.57, 7.20, repro,
2008-12-18,-2.05, -0.47, -13.13, 2.13, 1.52, 6.99, repro,
2008-12-19,0.61, -2.85, -7.77, 2.20, 1.53, 7.22, repro,
2008-12-20,1.09, -1.54, -6.40, 2.17, 1.57, 7.20, repro,
2008-12-21,0.11, -3.24, -3.55, 2.19, 1.57, 7.24, repro,
2008-12-22,0.66, -1.88, 0.50, 2.15, 1.53, 7.05, repro,
2008-12-23,-0.29, -2.11, 0.59, 2.14, 1.53, 7.04, repro,
2008-12-24,0.43, -2.45, -0.51, 2.14, 1.52, 7.02, repro,
2008-12-25,-1.01, -3.22, 2.96, 2.14, 1.52, 7.00, repro,
2008-12-26,-2.01, -2.19, 4.65, 2.14, 1.52, 6.99, repro,
2008-12-27,0.69, -0.54, -2.63, 2.14, 1.53, 7.04, repro,
2008-12-28,-2.29, -2.14, -5.57, 2.14, 1.53, 7.05, repro,
2008-12-29,-1.74, -1.71, -4.64, 2.13, 1.53, 7.02, repro,
2008-12-30,-0.22, -0.49, -10.34, 2.13, 1.52, 6.98, repro,
2008-12-31,-1.39, -1.15, -8.28, 2.14, 1.52, 7.00, repro,
2009-01-01,-0.07, -2.27, -7.91, 2.13, 1.51, 6.94, repro,
2009-01-02,-2.02, -1.71, -0.80, 2.13, 1.52, 6.99, repro,
2009-01-03,-0.97, -0.51, -7.64, 2.13, 1.52, 6.99, repro,
2009-01-04,-0.78, -0.71, -8.87, 2.13, 1.52, 7.00, repro,
2009-01-05,-1.37, -1.93, -0.11, 2.14, 1.52, 7.03, repro,
2009-01-06,-0.72, -1.60, -4.08, 2.14, 1.52, 7.02, repro,
2009-01-07,-0.11, -0.42, -4.97, 2.15, 1.52, 7.05, repro,
2009-01-08,-1.91, -1.19, -2.32, 2.19, 1.57, 7.27, repro,
2009-01-09,-0.82, 0.43, -10.60, 2.16, 1.56, 7.19, repro,
2009-01-10,-0.58, 0.55, -15.10, 2.12, 1.51, 6.97, repro,
2009-01-11,-2.13, 0.49, -13.33, 2.13, 1.52, 6.99, repro,
2009-01-12,-0.34, -1.03, -14.01, 2.15, 1.52, 7.05, repro,
2009-01-13,0.40, -0.44, -14.24, 2.14, 1.53, 7.03, repro,
2009-01-14,-0.14, -0.10, -9.98, 2.13, 1.53, 7.05, repro,
2009-01-15,-0.75, 0.11, -11.07, 2.12, 1.52, 6.99, repro,
2009-01-16,-0.38, -0.16, -8.38, 2.11, 1.52, 6.97, repro,
2009-01-17,0.16, 0.02, -10.36, 2.14, 1.53, 7.03, repro,
2009-01-18,0.09, -0.08, -10.14, 2.14, 1.53, 7.04, repro,
2009-01-19,-0.66, 0.11, -10.56, 2.13, 1.53, 7.08, repro,
2009-01-20,-0.53, 0.32, -9.09, 2.12, 1.52, 7.02, repro,
2009-01-21,-0.12, -0.21, -5.21, 2.13, 1.52, 7.02, repro,
2009-01-22,-0.36, -0.84, -4.74, 2.11, 1.52, 7.02, repro,
2009-01-23,-0.81, -0.13, -10.08, 2.13, 1.54, 7.07, repro,
2009-01-24,-0.95, 0.17, -14.33, 2.14, 1.55, 7.16, repro,
2009-01-25,-0.64, -0.11, -13.03, 2.13, 1.53, 7.08, repro,
2009-01-26,-2.02, -0.73, -8.58, 2.11, 1.52, 7.00, repro,
2009-01-27,-1.25, 0.64, -8.85, 2.10, 1.52, 6.96, repro,
2009-01-28,-0.96, -0.25, -9.22, 2.12, 1.52, 7.01, repro,
2009-01-29,-1.16, -0.46, -10.84, 2.13, 1.54, 7.10, repro,
2009-01-30,-0.27, -0.20, -10.72, 2.12, 1.53, 7.06, repro,
2009-01-31,0.11, 0.54, -7.41, 2.12, 1.52, 7.01, repro,
2009-02-01,-1.13, 0.40, -12.21, 2.10, 1.52, 6.94, repro,
2009-02-02,0.18, -0.58, -9.67, 2.10, 1.52, 6.96, repro,
2009-02-03,0.43, -0.84, -9.02, 2.12, 1.55, 7.07, repro,
2009-02-04,-0.37, -0.31, -9.50, 2.16, 1.58, 7.22, repro,
2009-02-05,-1.52, -0.52, -5.27, 2.16, 1.56, 7.15, repro,
2009-02-06,-0.54, -0.95, -4.77, 2.26, 1.66, 7.52, repro,
2009-02-07,-1.68, -1.46, -6.88, 2.13, 1.56, 7.04, repro,
2009-02-08,-0.73, -2.16, -3.37, 2.11, 1.53, 6.99, repro,
2009-02-09,-2.99, -1.77, -0.21, 2.15, 1.58, 7.18, repro,
2009-02-10,-1.35, -1.38, -3.92, 2.14, 1.55, 7.09, repro,
2009-02-11,0.32, -0.30, -5.59, 2.20, 1.61, 7.28, repro,
2009-02-12,-1.53, -0.68, -12.17, 2.15, 1.57, 7.12, repro,
2009-02-13,-1.07, 0.16, -8.19, 2.12, 1.55, 7.02, repro,
2009-02-14,-1.00, -0.90, -3.29, 2.11, 1.53, 7.00, repro,
2009-02-15,-1.09, -1.10, -4.90, 2.16, 1.58, 7.27, repro,
2009-02-16,-1.70, -1.58, 1.62, 2.12, 1.54, 7.02, repro,
2009-02-17,-1.25, -1.37, -1.26, 2.20, 1.57, 7.21, repro,
2009-02-18,-0.60, -0.57, -8.19, 2.12, 1.56, 7.11, repro,
2009-02-19,-2.06, -0.58, -8.91, 2.16, 1.59, 7.32, repro,
2009-02-20,-1.32, -0.27, -12.08, 2.18, 1.61, 7.40, repro,
2009-02-21,-2.18, -0.91, -4.92, 2.16, 1.58, 7.30, repro,
2009-02-22,-1.46, -0.87, -7.97, 2.12, 1.54, 7.04, repro,
2009-02-23,-1.33, -2.26, -12.12, 2.16, 1.57, 7.17, repro,
2009-02-24,-2.06, -2.30, -8.57, 2.23, 1.69, 7.47, repro,
2009-02-25,-1.13, -1.15, -11.68, 199.04, 160.02, 310.78, repro,
2009-02-26,-1.57, 0.14, -7.69, 2.13, 1.57, 7.13, repro,
2009-02-27,-0.15, -0.69, -15.02, 2.35, 1.73, 8.02, repro,
2009-02-28,-1.48, 0.72, -12.58, 2.14, 1.57, 7.21, repro,
2009-03-01,-0.01, -1.19, -5.82, 2.23, 1.63, 7.58, repro,
2009-03-02,-1.95, -1.55, -3.45, 2.09, 1.54, 6.97, repro,
2009-03-03,-1.14, -2.71, -2.86, 2.14, 1.60, 7.21, repro,
2009-03-04,-0.92, -0.69, -4.72, 2.10, 1.54, 7.01, repro,
2009-03-05,-0.62, -0.51, -8.02, 2.15, 1.58, 7.26, repro,
2009-03-06,-1.02, -0.53, -7.32, 2.16, 1.63, 7.37, repro,
2009-03-07,-0.96, -0.11, -6.76, 2.12, 1.57, 7.11, repro,
2009-03-08,-2.43, -0.11, -6.37, 2.12, 1.57, 7.15, repro,
2009-03-09,0.32, -0.46, -5.76, 2.13, 1.57, 7.16, repro,
2009-03-10,-1.27, 0.05, -13.94, 2.17, 1.63, 7.37, repro,
2009-03-11,-0.58, -0.25, -10.42, 2.12, 1.54, 7.03, repro,
2009-03-12,-1.03, -0.23, -13.13, 2.11, 1.57, 7.13, repro,
2009-03-13,-1.09, -1.28, -6.52, 2.12, 1.58, 7.16, repro,
2009-03-14,0.27, -0.86, -3.95, 2.10, 1.55, 7.00, repro,
2009-03-15,0.11, -1.86, -2.95, 2.11, 1.55, 7.05, repro,
2009-03-16,-1.01, -0.65, -10.89, 2.11, 1.55, 7.04, repro,
2009-03-17,0.59, -0.56, -6.27, 2.11, 1.54, 6.98, repro,
2009-03-18,-0.64, 0.30, -12.94, 2.10, 1.53, 6.93, repro,
2009-03-19,-1.21, 0.29, -7.16, 2.10, 1.54, 6.95, repro,
2009-03-20,-0.26, -0.70, -8.71, 2.11, 1.54, 6.99, repro,
2009-03-21,-1.82, -0.94, -1.24, 2.11, 1.55, 7.00, repro,
2009-03-22,-0.81, -0.72, -6.94, 2.10, 1.54, 6.96, repro,
2009-03-23,-0.14, 0.17, -11.78, 2.09, 1.54, 6.93, repro,
2009-03-24,-0.30, -0.36, -11.27, 2.09, 1.53, 6.93, repro,
2009-03-25,-1.57, -0.17, -7.78, 2.11, 1.54, 7.01, repro,
2009-03-26,-0.52, -0.06, -7.62, 2.12, 1.55, 7.02, repro,
2009-03-27,-0.61, 0.37, -7.42, 2.15, 1.56, 7.09, repro,
2009-03-28,-1.11, -0.51, -10.44, 2.16, 1.56, 7.09, repro,
2009-03-29,-1.06, -0.77, -1.20, 2.14, 1.54, 7.03, repro,
2009-03-30,-1.65, 0.19, -7.93, 2.16, 1.56, 7.10, repro,
2009-03-31,-0.87, -0.79, -9.13, 2.15, 1.56, 7.12, repro,
2009-04-01,-0.31, 0.01, -8.80, 2.16, 1.56, 7.14, repro,
2009-04-02,-1.34, -1.35, -6.43, 2.24, 1.59, 7.30, repro,
2009-04-03,-2.96, -0.54, -5.59, 2.22, 1.58, 7.26, repro,
2009-04-04,-1.04, -0.38, -10.65, 2.15, 1.54, 7.03, repro,
2009-04-05,-1.06, 0.09, -10.67, 2.15, 1.55, 7.05, repro,
2009-04-06,-0.86, 0.28, -8.91, 2.17, 1.56, 7.11, repro,
2009-04-07,-0.39, -0.15, -5.96, 2.16, 1.55, 7.09, repro,
2009-04-08,-1.22, 0.24, -5.31, 2.17, 1.55, 7.08, repro,
2009-04-09,-0.43, -0.76, -8.07, 2.19, 1.57, 7.11, repro,
2009-04-10,-1.95, -0.67, -8.48, 2.15, 1.54, 7.02, repro,
2009-04-11,-1.39, -0.81, -7.90, 2.24, 1.63, 7.38, repro,
2009-04-12,-0.12, -0.68, -11.02, 2.18, 1.56, 7.13, repro,
2009-04-13,-2.20, -0.87, -11.85, 2.19, 1.56, 7.13, repro,
2009-04-14,-2.54, -0.35, -10.93, 2.18, 1.54, 7.06, repro,
2009-04-15,-0.66, -0.05, -8.36, 2.22, 1.61, 7.23, repro,
2009-04-16,-0.66, -0.93, -14.93, 2.17, 1.55, 7.09, repro,
2009-04-17,0.07, -0.42, -13.24, 2.21, 1.58, 7.22, repro,
2009-04-18,-0.88, 0.58, -11.65, 2.23, 1.58, 7.28, repro,
2009-04-19,0.11, 0.05, -7.32, 2.21, 1.58, 7.19, repro,
2009-04-20,0.15, -0.02, -5.68, 2.17, 1.53, 7.03, repro,
2009-04-21,-0.96, -0.08, -10.19, 2.24, 1.61, 7.29, repro,
2009-04-22,0.38, -1.41, -5.57, 2.26, 1.62, 7.41, repro,
2009-04-23,0.26, 0.27, -1.16, 2.23, 1.59, 7.23, repro,
2009-04-24,-1.28, 0.09, -7.77, 2.27, 1.64, 7.37, repro,
2009-04-25,-1.14, -0.51, -10.47, 2.18, 1.53, 7.06, repro,
2009-04-26,-1.48, -0.67, -13.96, 2.17, 1.53, 7.03, repro,
2009-04-27,-0.83, -0.16, -7.95, 2.21, 1.58, 7.17, repro,
2009-04-28,-0.44, -0.15, -5.45, 2.22, 1.57, 7.22, repro,
2009-04-29,0.48, 1.60, -8.62, 2.33, 1.69, 7.60, repro,
2009-04-30,-1.93, -0.21, -12.05, 2.23, 1.61, 7.29, repro,
2009-05-01,-0.67, -0.29, -4.94, 2.18, 1.53, 7.02, repro,
2009-05-02,-1.00, 0.21, -4.03, 2.18, 1.54, 7.06, repro,
2009-05-03,-0.23, -1.14, -4.12, 2.19, 1.54, 7.08, repro,
2009-05-04,-1.25, -0.19, -6.64, 2.22, 1.58, 7.24, repro,
2009-05-05,0.28, -1.72, -1.22, 2.20, 1.55, 7.14, repro,
2009-05-06,-0.55, -0.92, -8.17, 2.22, 1.56, 7.14, repro,
2009-05-07,-1.13, -0.22, -5.28, 2.16, 1.53, 7.01, repro,
2009-05-08,-1.07, 0.44, -10.02, 2.18, 1.54, 7.09, repro,
2009-05-09,-1.63, 0.96, -14.01, 2.17, 1.54, 7.06, repro,
2009-05-10,-0.31, -0.12, -9.71, 2.18, 1.56, 7.14, repro,
2009-05-11,-1.09, -0.10, -6.59, 2.18, 1.53, 7.08, repro,
2009-05-12,-1.41, -0.59, -4.86, 2.26, 1.61, 7.34, repro,
2009-05-13,-0.40, 0.27, -8.16, 2.20, 1.58, 7.20, repro,
2009-05-14,1.65, 0.15, -3.02, 2.17, 1.54, 7.06, repro,
2009-05-15,0.38, 0.27, -5.53, 2.18, 1.55, 7.14, repro,
2009-05-16,-0.95, 0.21, -10.09, 2.17, 1.54, 7.09, repro,
2009-05-17,-0.08, 0.09, -14.93, 2.17, 1.53, 7.07, repro,
2009-05-18,-0.12, -0.21, -10.63, 2.16, 1.54, 7.09, repro,
2009-05-19,-0.40, -0.88, -5.95, 2.18, 1.57, 7.25, repro,
2009-05-20,0.46, -0.08, -10.15, 2.17, 1.54, 7.09, repro,
2009-05-21,-0.12, -0.62, -8.80, 2.17, 1.55, 7.13, repro,
2009-05-22,1.04, 0.10, -11.73, 2.16, 1.53, 7.06, repro,
2009-05-23,2.56, -0.49, -7.65, 2.17, 1.53, 7.11, repro,
2009-05-24,0.95, 0.04, -10.55, 2.16, 1.53, 7.07, repro,
2009-05-25,-0.13, 0.04, -5.16, 2.16, 1.54, 7.09, repro,
2009-05-26,0.72, -0.00, -7.58, 2.17, 1.54, 7.14, repro,
2009-05-27,0.40, 0.93, -6.12, 2.18, 1.55, 7.18, repro,
2009-05-28,0.70, -1.00, -2.31, 2.17, 1.52, 7.11, repro,
2009-05-29,0.15, -0.94, -5.45, 2.16, 1.53, 7.12, repro,
2009-05-30,0.43, -1.01, -5.85, 2.16, 1.54, 7.14, repro,
2009-05-31,1.12, -0.42, -14.68, 2.15, 1.53, 7.12, repro,
2009-06-01,0.04, -0.52, -2.57, 2.18, 1.54, 7.18, repro,
2009-06-02,0.23, -0.52, -8.76, 2.18, 1.54, 7.19, repro,
2009-06-03,0.98, -1.51, -9.14, 2.17, 1.53, 7.17, repro,
2009-06-04,0.55, -0.83, -13.13, 2.16, 1.54, 7.17, repro,
2009-06-05,0.53, -1.50, -3.61, 2.15, 1.53, 7.09, repro,
2009-06-06,0.81, -0.32, -6.41, 2.21, 1.58, 7.30, repro,
2009-06-07,1.12, -0.17, -5.15, 2.23, 1.59, 7.32, repro,
2009-06-08,1.68, 0.40, -4.00, 2.17, 1.53, 7.10, repro,
2009-06-09,1.63, -0.48, -1.76, 2.17, 1.54, 7.13, repro,
2009-06-10,0.53, -0.41, -10.90, 2.19, 1.55, 7.19, repro,
2009-06-11,-0.93, -0.44, -7.35, 2.16, 1.53, 7.09, repro,
2009-06-12,-0.05, -0.01, -9.22, 2.17, 1.54, 7.13, repro,
2009-06-13,0.76, 0.22, -7.61, 2.19, 1.54, 7.20, repro,
2009-06-14,0.34, 0.16, -5.06, 2.20, 1.58, 7.28, repro,
2009-06-15,0.64, 0.23, -4.82, 2.16, 1.53, 7.11, repro,
2009-06-16,0.64, -0.28, -8.19, 2.15, 1.53, 7.08, repro,
2009-06-17,1.66, -0.72, -5.31, 2.16, 1.54, 7.08, repro,
2009-06-18,0.32, -1.50, -8.29, 2.21, 1.57, 7.28, repro,
2009-06-19,0.85, 0.01, -7.11, 2.31, 1.63, 7.61, repro,
2009-06-20,-0.05, -0.45, -8.22, 2.15, 1.53, 7.08, repro,
2009-06-21,0.35, -1.06, 2.07, 2.16, 1.54, 7.12, repro,
2009-06-22,-0.56, -0.33, -4.24, 2.16, 1.53, 7.09, repro,
2009-06-23,-0.75, -0.54, -2.84, 2.16, 1.55, 7.11, repro,
2009-06-24,-0.08, -0.55, -2.49, 2.21, 1.59, 7.29, repro,
2009-06-25,-0.49, -1.48, -6.45, 2.20, 1.58, 7.21, repro,
2009-06-26,-0.63, -0.49, -7.62, 2.19, 1.56, 7.24, repro,
2009-06-27,-1.39, 1.06, -3.82, 2.22, 1.62, 7.40, repro,
2009-06-28,0.04, 0.43, -3.03, 2.17, 1.56, 7.16, repro,
2009-06-29,-0.66, -0.39, -2.72, 2.18, 1.57, 7.22, repro,
2009-06-30,0.02, 0.43, -4.13, 2.17, 1.56, 7.19, repro,
2009-07-01,-0.42, -0.21, -0.65, 2.18, 1.56, 7.21, repro,
2009-07-02,1.44, -0.77, -3.39, 2.20, 1.55, 7.21, repro,
2009-07-03,1.39, -0.69, -0.88, 2.15, 1.54, 7.11, repro,